Time,TemperatureF,DewpointF,PressureIn,WindDirection,WindDirectionDegrees,WindSpeedMPH,WindSpeedGustMPH,Humidity,HourlyPrecipIn,Conditions,Clouds,dailyrainin,SoftwareType,DateUTC
2013-02-25 00:00:00,67.3,65.8,29.89,ENE,78,3.0,9.0,95,0.00,,,0.00,VWS V14.01,2013-02-25 05:00:00,
2013-02-25 00:04:00,67.3,65.8,29.89,ENE,78,3.0,9.0,95,0.00,,,0.00,VWS V14.01,2013-02-25 05:04:00,
2013-02-25 00:10:00,67.2,65.7,29.89,ESE,110,1.0,7.0,95,0.00,,,0.00,VWS V14.01,2013-02-25 05:10:00,
2013-02-25 00:14:00,67.2,65.7,29.89,ESE,110,1.0,7.0,95,0.00,,,0.00,VWS V14.01,2013-02-25 05:14:00,
2013-02-25 00:20:00,67.2,65.7,29.88,SE,128,4.0,9.0,95,0.00,,,0.00,VWS V14.01,2013-02-25 05:20:00,
2013-02-25 00:24:00,67.2,65.7,29.88,SE,128,4.0,9.0,95,0.00,,,0.00,VWS V14.01,2013-02-25 05:24:00,
2013-02-25 00:30:00,67.3,65.8,29.87,SE,128,6.0,7.0,95,0.00,,,0.00,VWS V14.01,2013-02-25 05:30:00,
2013-02-25 00:34:00,67.3,65.8,29.87,SE,128,6.0,7.0,95,0.00,,,0.00,VWS V14.01,2013-02-25 05:34:00,
2013-02-25 00:40:00,67.3,65.8,29.87,SE,128,5.0,7.0,95,0.00,,,0.00,VWS V14.01,2013-02-25 05:40:00,
2013-02-25 00:44:00,67.3,65.8,29.87,SE,128,5.0,7.0,95,0.00,,,0.00,VWS V14.01,2013-02-25 05:44:00,
2013-02-25 00:50:00,67.2,65.7,29.88,ESE,122,1.0,7.0,95,0.00,,,0.00,VWS V14.01,2013-02-25 05:50:00,
2013-02-25 00:54:00,67.2,65.7,29.88,ESE,122,1.0,7.0,95,0.00,,,0.00,VWS V14.01,2013-02-25 05:54:00,
2013-02-25 01:00:00,67.2,65.7,29.88,ESE,122,0.0,7.0,95,0.00,,,0.00,VWS V14.01,2013-02-25 06:00:00,
2013-02-25 01:04:00,67.2,65.7,29.88,ESE,122,0.0,7.0,95,0.00,,,0.00,VWS V14.01,2013-02-25 06:04:00,
2013-02-25 01:10:00,67.2,65.7,29.88,ESE,122,0.0,4.0,95,0.00,,,0.00,VWS V14.01,2013-02-25 06:10:00,
2013-02-25 01:14:00,67.2,65.7,29.88,ESE,122,0.0,4.0,95,0.00,,,0.00,VWS V14.01,2013-02-25 06:14:00,
2013-02-25 01:20:00,67.2,65.7,29.88,ESE,122,4.0,5.0,95,0.00,,,0.00,VWS V14.01,2013-02-25 06:20:00,
2013-02-25 01:24:00,67.2,65.7,29.88,ESE,122,4.0,5.0,95,0.00,,,0.00,VWS V14.01,2013-02-25 06:24:00,
2013-02-25 01:30:00,67.1,65.6,29.87,ESE,122,4.0,6.0,95,0.00,,,0.00,VWS V14.01,2013-02-25 06:30:00,
2013-02-25 01:34:00,67.1,65.6,29.87,ESE,122,4.0,6.0,95,0.00,,,0.00,VWS V14.01,2013-02-25 06:34:00,
2013-02-25 01:40:00,67.0,65.5,29.88,East,99,0.0,6.0,95,0.00,,,0.00,VWS V14.01,2013-02-25 06:40:00,
2013-02-25 01:44:00,67.0,65.5,29.88,East,99,0.0,6.0,95,0.00,,,0.00,VWS V14.01,2013-02-25 06:44:00,
2013-02-25 01:50:00,66.9,65.4,29.87,East,99,0.0,2.0,95,0.00,,,0.00,VWS V14.01,2013-02-25 06:50:00,
2013-02-25 01:54:00,66.9,65.4,29.87,East,99,0.0,2.0,95,0.00,,,0.00,VWS V14.01,2013-02-25 06:54:00,
2013-02-25 02:00:00,66.7,65.2,29.86,East,99,0.0,4.0,95,0.00,,,0.00,VWS V14.01,2013-02-25 07:00:00,
2013-02-25 02:04:00,66.7,65.2,29.86,East,99,0.0,4.0,95,0.00,,,0.00,VWS V14.01,2013-02-25 07:04:00,
2013-02-25 02:10:00,66.5,65.0,29.86,East,99,0.0,1.0,95,0.00,,,0.00,VWS V14.01,2013-02-25 07:10:00,
2013-02-25 02:14:00,66.5,65.0,29.86,East,99,0.0,1.0,95,0.00,,,0.00,VWS V14.01,2013-02-25 07:14:00,
2013-02-25 02:20:00,66.2,64.7,29.86,East,99,0.0,0.0,95,0.00,,,0.00,VWS V14.01,2013-02-25 07:20:00,
2013-02-25 02:24:00,66.2,64.7,29.86,East,99,0.0,0.0,95,0.00,,,0.00,VWS V14.01,2013-02-25 07:24:00,
2013-02-25 02:30:00,65.9,64.4,29.86,East,99,0.0,0.0,95,0.00,,,0.00,VWS V14.01,2013-02-25 07:30:00,
2013-02-25 02:34:00,65.9,64.4,29.86,East,99,0.0,0.0,95,0.00,,,0.00,VWS V14.01,2013-02-25 07:34:00,
2013-02-25 02:40:00,65.7,64.5,29.87,East,99,0.0,4.0,96,0.00,,,0.00,VWS V14.01,2013-02-25 07:40:00,
2013-02-25 02:44:00,65.7,64.5,29.87,East,99,0.0,4.0,96,0.00,,,0.00,VWS V14.01,2013-02-25 07:44:00,
2013-02-25 02:50:00,65.7,64.5,29.86,East,99,0.0,2.0,96,0.00,,,0.00,VWS V14.01,2013-02-25 07:50:00,
2013-02-25 02:54:00,65.7,64.5,29.86,East,99,0.0,2.0,96,0.00,,,0.00,VWS V14.01,2013-02-25 07:54:00,
2013-02-25 03:00:00,65.7,64.5,29.85,East,99,0.0,0.0,96,0.00,,,0.00,VWS V14.01,2013-02-25 08:00:00,
2013-02-25 03:04:00,65.7,64.5,29.85,East,99,0.0,0.0,96,0.00,,,0.00,VWS V14.01,2013-02-25 08:04:00,
2013-02-25 03:10:00,65.6,64.4,29.84,East,99,0.0,0.0,96,0.00,,,0.00,VWS V14.01,2013-02-25 08:10:00,
2013-02-25 03:14:00,65.6,64.4,29.84,East,99,0.0,0.0,96,0.00,,,0.00,VWS V14.01,2013-02-25 08:14:00,
2013-02-25 03:20:00,65.4,64.2,29.83,East,99,0.0,0.0,96,0.00,,,0.00,VWS V14.01,2013-02-25 08:20:00,
2013-02-25 03:24:00,65.4,64.2,29.83,East,99,0.0,0.0,96,0.00,,,0.00,VWS V14.01,2013-02-25 08:24:00,
2013-02-25 03:30:00,65.3,64.1,29.83,East,99,0.0,0.0,96,0.00,,,0.00,VWS V14.01,2013-02-25 08:30:00,
2013-02-25 03:34:00,65.3,64.1,29.83,East,99,0.0,0.0,96,0.00,,,0.00,VWS V14.01,2013-02-25 08:34:00,
2013-02-25 03:40:00,65.3,64.1,29.83,East,99,0.0,0.0,96,0.00,,,0.00,VWS V14.01,2013-02-25 08:40:00,
2013-02-25 03:44:00,65.3,64.1,29.83,East,99,0.0,0.0,96,0.00,,,0.00,VWS V14.01,2013-02-25 08:44:00,
2013-02-25 03:50:00,65.3,64.1,29.82,East,99,0.0,0.0,96,0.00,,,0.00,VWS V14.01,2013-02-25 08:50:00,
2013-02-25 03:54:00,65.3,64.1,29.82,East,99,0.0,0.0,96,0.00,,,0.00,VWS V14.01,2013-02-25 08:54:00,
2013-02-25 04:00:00,65.3,64.4,29.83,East,99,0.0,1.0,97,0.00,,,0.00,VWS V14.01,2013-02-25 09:00:00,
2013-02-25 04:04:00,65.3,64.4,29.83,East,99,0.0,1.0,97,0.00,,,0.00,VWS V14.01,2013-02-25 09:04:00,
2013-02-25 04:10:00,65.5,64.6,29.82,East,99,1.0,2.0,97,0.00,,,0.00,VWS V14.01,2013-02-25 09:10:00,
2013-02-25 04:14:00,65.5,64.6,29.82,East,99,1.0,2.0,97,0.00,,,0.00,VWS V14.01,2013-02-25 09:14:00,
2013-02-25 04:20:00,65.7,64.8,29.82,East,99,0.0,4.0,97,0.00,,,0.00,VWS V14.01,2013-02-25 09:20:00,
2013-02-25 04:24:00,65.7,64.8,29.82,East,99,0.0,4.0,97,0.00,,,0.00,VWS V14.01,2013-02-25 09:24:00,
2013-02-25 04:30:00,65.9,65.0,29.82,East,99,0.0,4.0,97,0.00,,,0.00,VWS V14.01,2013-02-25 09:30:00,
2013-02-25 04:34:00,65.9,65.0,29.82,East,99,0.0,4.0,97,0.00,,,0.00,VWS V14.01,2013-02-25 09:34:00,
2013-02-25 04:40:00,66.0,65.1,29.82,East,99,0.0,2.0,97,0.00,,,0.00,VWS V14.01,2013-02-25 09:40:00,
2013-02-25 04:44:00,66.0,65.1,29.82,East,99,0.0,2.0,97,0.00,,,0.00,VWS V14.01,2013-02-25 09:44:00,
2013-02-25 04:50:00,66.1,65.2,29.82,East,99,0.0,2.0,97,0.00,,,0.00,VWS V14.01,2013-02-25 09:50:00,
2013-02-25 04:54:00,66.1,65.2,29.82,East,99,0.0,2.0,97,0.00,,,0.00,VWS V14.01,2013-02-25 09:54:00,
2013-02-25 05:00:00,66.2,65.3,29.83,East,99,1.0,4.0,97,0.00,,,0.00,VWS V14.01,2013-02-25 10:00:00,
2013-02-25 05:04:00,66.2,65.3,29.83,East,99,1.0,4.0,97,0.00,,,0.00,VWS V14.01,2013-02-25 10:04:00,
2013-02-25 05:10:00,66.3,65.4,29.83,East,100,1.0,7.0,97,0.00,,,0.00,VWS V14.01,2013-02-25 10:10:00,
2013-02-25 05:14:00,66.3,65.4,29.83,East,100,1.0,7.0,97,0.00,,,0.00,VWS V14.01,2013-02-25 10:14:00,
2013-02-25 05:20:00,66.4,65.5,29.83,East,101,0.0,6.0,97,0.00,,,0.00,VWS V14.01,2013-02-25 10:20:00,
2013-02-25 05:24:00,66.4,65.5,29.83,East,101,0.0,6.0,97,0.00,,,0.00,VWS V14.01,2013-02-25 10:24:00,
2013-02-25 05:30:00,66.4,65.5,29.82,ESE,117,0.0,7.0,97,0.00,,,0.00,VWS V14.01,2013-02-25 10:30:00,
2013-02-25 05:34:00,66.4,65.5,29.82,ESE,117,0.0,7.0,97,0.00,,,0.00,VWS V14.01,2013-02-25 10:34:00,
2013-02-25 05:40:00,66.5,65.9,29.82,ESE,117,2.0,6.0,98,0.00,,,0.00,VWS V14.01,2013-02-25 10:40:00,
2013-02-25 05:44:00,66.5,65.9,29.82,ESE,117,2.0,6.0,98,0.00,,,0.00,VWS V14.01,2013-02-25 10:44:00,
2013-02-25 05:50:00,66.5,65.9,29.82,ESE,117,0.0,4.0,98,0.00,,,0.00,VWS V14.01,2013-02-25 10:50:00,
2013-02-25 05:54:00,66.5,65.9,29.82,ESE,117,0.0,4.0,98,0.00,,,0.00,VWS V14.01,2013-02-25 10:54:00,
2013-02-25 06:00:00,66.5,65.9,29.83,ESE,117,2.0,4.0,98,0.00,,,0.00,VWS V14.01,2013-02-25 11:00:00,
2013-02-25 06:04:00,66.5,65.9,29.83,ESE,117,2.0,4.0,98,0.00,,,0.00,VWS V14.01,2013-02-25 11:04:00,
2013-02-25 06:10:00,66.5,65.9,29.82,ESE,117,0.0,4.0,98,0.00,,,0.00,VWS V14.01,2013-02-25 11:10:00,
2013-02-25 06:14:00,66.5,65.9,29.82,ESE,117,0.0,4.0,98,0.00,,,0.00,VWS V14.01,2013-02-25 11:14:00,
2013-02-25 06:20:00,66.3,65.7,29.82,ESE,117,0.0,4.0,98,0.00,,,0.00,VWS V14.01,2013-02-25 11:20:00,
2013-02-25 06:24:00,66.3,65.7,29.82,ESE,117,0.0,4.0,98,0.00,,,0.00,VWS V14.01,2013-02-25 11:24:00,
2013-02-25 06:30:00,66.2,65.6,29.82,ESE,117,0.0,6.0,98,0.00,,,0.00,VWS V14.01,2013-02-25 11:30:00,
2013-02-25 06:34:00,66.2,65.6,29.82,ESE,117,0.0,6.0,98,0.00,,,0.00,VWS V14.01,2013-02-25 11:34:00,
2013-02-25 06:40:00,66.1,65.5,29.83,ESE,117,2.0,6.0,98,0.00,,,0.00,VWS V14.01,2013-02-25 11:40:00,
2013-02-25 06:44:00,66.1,65.5,29.83,ESE,117,2.0,6.0,98,0.00,,,0.00,VWS V14.01,2013-02-25 11:44:00,
2013-02-25 06:50:00,66.2,65.6,29.83,ESE,117,0.0,4.0,98,0.00,,,0.00,VWS V14.01,2013-02-25 11:50:00,
2013-02-25 06:54:00,66.2,65.6,29.83,ESE,117,0.0,4.0,98,0.00,,,0.00,VWS V14.01,2013-02-25 11:54:00,
2013-02-25 07:00:00,66.3,65.7,29.85,ESE,117,1.0,4.0,98,0.00,,,0.00,VWS V14.01,2013-02-25 12:00:00,
2013-02-25 07:04:00,66.3,65.7,29.85,ESE,117,1.0,4.0,98,0.00,,,0.00,VWS V14.01,2013-02-25 12:04:00,
2013-02-25 07:10:00,66.4,65.8,29.86,SE,135,1.0,5.0,98,0.00,,,0.00,VWS V14.01,2013-02-25 12:10:00,
2013-02-25 07:14:00,66.4,65.8,29.86,SE,135,1.0,5.0,98,0.00,,,0.00,VWS V14.01,2013-02-25 12:14:00,
2013-02-25 07:20:00,66.4,65.8,29.86,SE,135,0.0,1.0,98,0.00,,,0.00,VWS V14.01,2013-02-25 12:20:00,
2013-02-25 07:24:00,66.4,65.8,29.86,SE,135,0.0,1.0,98,0.00,,,0.00,VWS V14.01,2013-02-25 12:24:00,
2013-02-25 07:30:00,66.4,65.8,29.86,SE,135,4.0,6.0,98,0.00,,,0.00,VWS V14.01,2013-02-25 12:30:00,
2013-02-25 07:34:00,66.4,65.8,29.86,SE,135,4.0,6.0,98,0.00,,,0.00,VWS V14.01,2013-02-25 12:34:00,
2013-02-25 07:40:00,66.5,65.9,29.85,SE,142,0.0,6.0,98,0.00,,,0.00,VWS V14.01,2013-02-25 12:40:00,
2013-02-25 07:44:00,66.5,65.9,29.85,SE,142,0.0,6.0,98,0.00,,,0.00,VWS V14.01,2013-02-25 12:44:00,
2013-02-25 07:50:00,66.8,66.2,29.85,SSE,158,1.0,7.0,98,0.00,,,0.00,VWS V14.01,2013-02-25 12:50:00,
2013-02-25 07:54:00,66.8,66.2,29.85,SSE,158,1.0,7.0,98,0.00,,,0.00,VWS V14.01,2013-02-25 12:54:00,
2013-02-25 08:00:00,67.2,66.6,29.85,SSE,148,4.0,8.0,98,0.00,,,0.00,VWS V14.01,2013-02-25 13:00:00,
2013-02-25 08:04:00,67.2,66.6,29.85,SSE,148,4.0,8.0,98,0.00,,,0.00,VWS V14.01,2013-02-25 13:04:00,
2013-02-25 08:10:00,67.8,67.2,29.86,SSE,166,5.0,8.0,98,0.00,,,0.00,VWS V14.01,2013-02-25 13:10:00,
2013-02-25 08:14:00,67.8,67.2,29.86,SSE,166,5.0,8.0,98,0.00,,,0.00,VWS V14.01,2013-02-25 13:14:00,
2013-02-25 08:20:00,68.4,67.8,29.86,SSE,163,4.0,7.0,98,0.00,,,0.00,VWS V14.01,2013-02-25 13:20:00,
2013-02-25 08:24:00,68.4,67.8,29.86,SSE,163,4.0,7.0,98,0.00,,,0.00,VWS V14.01,2013-02-25 13:24:00,
2013-02-25 08:30:00,68.8,68.2,29.86,SSE,156,5.0,8.0,98,0.00,,,0.00,VWS V14.01,2013-02-25 13:30:00,
2013-02-25 08:34:00,68.8,68.2,29.86,SSE,156,5.0,8.0,98,0.00,,,0.00,VWS V14.01,2013-02-25 13:34:00,
2013-02-25 08:40:00,69.1,68.5,29.86,SSE,155,4.0,7.0,98,0.00,,,0.00,VWS V14.01,2013-02-25 13:40:00,
2013-02-25 08:44:00,69.1,68.5,29.86,SSE,155,4.0,7.0,98,0.00,,,0.00,VWS V14.01,2013-02-25 13:44:00,
2013-02-25 08:50:00,69.7,69.1,29.86,SE,139,6.0,8.0,98,0.00,,,0.00,VWS V14.01,2013-02-25 13:50:00,
2013-02-25 08:54:00,69.7,69.1,29.86,SE,139,6.0,8.0,98,0.00,,,0.00,VWS V14.01,2013-02-25 13:54:00,
2013-02-25 09:00:00,69.9,69.3,29.86,SE,137,2.0,9.0,98,0.00,,,0.00,VWS V14.01,2013-02-25 14:00:00,
2013-02-25 09:04:00,69.9,69.3,29.86,SE,137,2.0,9.0,98,0.00,,,0.00,VWS V14.01,2013-02-25 14:04:00,
2013-02-25 09:10:00,71.1,69.9,29.87,SE,142,0.0,7.0,96,0.00,,,0.00,VWS V14.01,2013-02-25 14:10:00,
2013-02-25 09:14:00,71.1,69.9,29.87,SE,142,0.0,7.0,96,0.00,,,0.00,VWS V14.01,2013-02-25 14:14:00,
2013-02-25 09:20:00,73.0,70.2,29.86,SSE,151,2.0,7.0,91,0.00,,,0.00,VWS V14.01,2013-02-25 14:20:00,
2013-02-25 09:24:00,73.0,70.2,29.86,SSE,151,2.0,7.0,91,0.00,,,0.00,VWS V14.01,2013-02-25 14:24:00,
2013-02-25 09:30:00,73.7,70.6,29.86,SE,142,4.0,8.0,90,0.00,,,0.00,VWS V14.01,2013-02-25 14:30:00,
2013-02-25 09:34:00,73.7,70.6,29.86,SE,142,4.0,8.0,90,0.00,,,0.00,VWS V14.01,2013-02-25 14:34:00,
2013-02-25 09:40:00,75.1,70.6,29.86,South,186,4.0,7.0,86,0.00,,,0.00,VWS V14.01,2013-02-25 14:40:00,
2013-02-25 09:44:00,75.1,70.6,29.86,South,186,4.0,7.0,86,0.00,,,0.00,VWS V14.01,2013-02-25 14:44:00,
2013-02-25 09:50:00,75.8,70.6,29.86,South,182,4.0,6.0,84,0.00,,,0.00,VWS V14.01,2013-02-25 14:50:00,
2013-02-25 09:54:00,75.8,70.6,29.86,South,182,4.0,6.0,84,0.00,,,0.00,VWS V14.01,2013-02-25 14:54:00,
2013-02-25 10:00:00,77.2,70.2,29.85,SSE,154,4.0,9.0,79,0.00,,,0.00,VWS V14.01,2013-02-25 15:00:00,
2013-02-25 10:04:00,77.2,70.2,29.85,SSE,154,4.0,9.0,79,0.00,,,0.00,VWS V14.01,2013-02-25 15:04:00,
2013-02-25 10:10:00,77.4,70.0,29.85,SSE,157,6.0,11.0,78,0.00,,,0.00,VWS V14.01,2013-02-25 15:10:00,
2013-02-25 10:14:00,77.4,70.0,29.85,SSE,157,6.0,11.0,78,0.00,,,0.00,VWS V14.01,2013-02-25 15:14:00,
2013-02-25 10:20:00,79.1,69.7,29.85,SW,229,5.0,9.0,73,0.00,,,0.00,VWS V14.01,2013-02-25 15:20:00,
2013-02-25 10:24:00,79.1,69.7,29.85,SW,229,5.0,9.0,73,0.00,,,0.00,VWS V14.01,2013-02-25 15:24:00,
2013-02-25 10:30:00,79.3,68.7,29.85,SSE,165,4.0,11.0,70,0.00,,,0.00,VWS V14.01,2013-02-25 15:30:00,
2013-02-25 10:34:00,79.3,68.7,29.85,SSE,165,4.0,11.0,70,0.00,,,0.00,VWS V14.01,2013-02-25 15:34:00,
2013-02-25 10:40:00,79.7,68.2,29.85,SSW,209,7.0,11.0,68,0.00,,,0.00,VWS V14.01,2013-02-25 15:40:00,
2013-02-25 10:44:00,79.7,68.2,29.85,SSW,209,7.0,11.0,68,0.00,,,0.00,VWS V14.01,2013-02-25 15:44:00,
2013-02-25 10:50:00,80.6,67.3,29.85,South,180,7.0,11.0,64,0.00,,,0.00,VWS V14.01,2013-02-25 15:50:00,
2013-02-25 10:54:00,80.6,67.3,29.85,South,180,7.0,11.0,64,0.00,,,0.00,VWS V14.01,2013-02-25 15:54:00,
2013-02-25 11:00:00,80.2,66.0,29.84,SSW,196,8.0,13.0,62,0.00,,,0.00,VWS V14.01,2013-02-25 16:00:00,
2013-02-25 11:04:00,80.2,66.0,29.84,SSW,196,8.0,13.0,62,0.00,,,0.00,VWS V14.01,2013-02-25 16:04:00,
2013-02-25 11:10:00,81.3,66.1,29.84,SSW,205,4.0,14.0,60,0.00,,,0.00,VWS V14.01,2013-02-25 16:10:00,
2013-02-25 11:14:00,81.3,66.1,29.84,SSW,205,4.0,14.0,60,0.00,,,0.00,VWS V14.01,2013-02-25 16:14:00,
2013-02-25 11:20:00,81.4,67.1,29.84,South,190,3.0,14.0,62,0.00,,,0.00,VWS V14.01,2013-02-25 16:20:00,
2013-02-25 11:24:00,81.4,67.1,29.84,South,190,3.0,14.0,62,0.00,,,0.00,VWS V14.01,2013-02-25 16:24:00,
2013-02-25 11:30:00,81.0,66.8,29.84,SSW,196,8.0,16.0,62,0.00,,,0.00,VWS V14.01,2013-02-25 16:30:00,
2013-02-25 11:34:00,81.0,66.8,29.84,SSW,196,8.0,16.0,62,0.00,,,0.00,VWS V14.01,2013-02-25 16:34:00,
2013-02-25 11:40:00,80.1,66.8,29.84,SSW,194,8.0,10.0,64,0.00,,,0.00,VWS V14.01,2013-02-25 16:40:00,
2013-02-25 11:44:00,80.1,66.8,29.84,SSW,194,8.0,10.0,64,0.00,,,0.00,VWS V14.01,2013-02-25 16:44:00,
2013-02-25 11:50:00,81.2,66.5,29.83,South,184,8.0,12.0,61,0.00,,,0.00,VWS V14.01,2013-02-25 16:50:00,
2013-02-25 11:54:00,81.2,66.5,29.83,South,184,8.0,12.0,61,0.00,,,0.00,VWS V14.01,2013-02-25 16:54:00,
2013-02-25 12:00:00,81.1,65.4,29.83,SSW,202,5.0,12.0,59,0.00,,,0.00,VWS V14.01,2013-02-25 17:00:00,
2013-02-25 12:04:00,81.1,65.4,29.83,SSW,202,5.0,12.0,59,0.00,,,0.00,VWS V14.01,2013-02-25 17:04:00,
2013-02-25 12:10:00,81.6,66.4,29.83,SW,225,5.0,10.0,60,0.00,,,0.00,VWS V14.01,2013-02-25 17:10:00,
2013-02-25 12:14:00,81.6,66.4,29.83,SW,225,5.0,10.0,60,0.00,,,0.00,VWS V14.01,2013-02-25 17:14:00,
2013-02-25 12:20:00,81.0,66.3,29.83,SW,218,7.0,8.0,61,0.00,,,0.00,VWS V14.01,2013-02-25 17:20:00,
2013-02-25 12:24:00,81.0,66.3,29.83,SW,218,7.0,8.0,61,0.00,,,0.00,VWS V14.01,2013-02-25 17:24:00,
2013-02-25 12:30:00,81.6,66.4,29.82,SW,218,4.0,7.0,60,0.00,,,0.00,VWS V14.01,2013-02-25 17:30:00,
2013-02-25 12:34:00,81.6,66.4,29.82,SW,218,4.0,7.0,60,0.00,,,0.00,VWS V14.01,2013-02-25 17:34:00,
2013-02-25 12:40:00,81.7,66.0,29.81,SSW,211,10.0,11.0,59,0.00,,,0.00,VWS V14.01,2013-02-25 17:40:00,
2013-02-25 12:44:00,81.7,66.0,29.81,SSW,211,10.0,11.0,59,0.00,,,0.00,VWS V14.01,2013-02-25 17:44:00,
2013-02-25 12:50:00,81.4,66.2,29.80,SW,215,4.0,10.0,60,0.00,,,0.00,VWS V14.01,2013-02-25 17:50:00,
2013-02-25 12:54:00,81.4,66.2,29.80,SW,215,4.0,10.0,60,0.00,,,0.00,VWS V14.01,2013-02-25 17:54:00,
2013-02-25 13:00:00,82.7,65.9,29.80,SSW,198,2.0,8.0,57,0.00,,,0.00,VWS V14.01,2013-02-25 18:00:00,
2013-02-25 13:04:00,82.7,65.9,29.80,SSW,198,2.0,8.0,57,0.00,,,0.00,VWS V14.01,2013-02-25 18:04:00,
2013-02-25 13:10:00,83.2,64.8,29.79,SSW,208,5.0,11.0,54,0.00,,,0.00,VWS V14.01,2013-02-25 18:10:00,
2013-02-25 13:14:00,83.2,64.8,29.79,SSW,208,5.0,11.0,54,0.00,,,0.00,VWS V14.01,2013-02-25 18:14:00,
2013-02-25 13:20:00,84.8,64.7,29.79,South,184,6.0,17.0,51,0.00,,,0.00,VWS V14.01,2013-02-25 18:20:00,
2013-02-25 13:24:00,84.8,64.7,29.79,South,184,6.0,17.0,51,0.00,,,0.00,VWS V14.01,2013-02-25 18:24:00,
2013-02-25 13:30:00,84.9,65.3,29.78,SSW,200,9.0,14.0,52,0.00,,,0.00,VWS V14.01,2013-02-25 18:30:00,
2013-02-25 13:34:00,84.9,65.3,29.78,SSW,200,9.0,14.0,52,0.00,,,0.00,VWS V14.01,2013-02-25 18:34:00,
2013-02-25 13:40:00,85.2,65.1,29.78,SSW,196,9.0,14.0,51,0.00,,,0.00,VWS V14.01,2013-02-25 18:40:00,
2013-02-25 13:44:00,85.2,65.1,29.78,SSW,196,9.0,14.0,51,0.00,,,0.00,VWS V14.01,2013-02-25 18:44:00,
2013-02-25 13:50:00,84.5,64.4,29.77,SSE,152,8.0,12.0,51,0.00,,,0.00,VWS V14.01,2013-02-25 18:50:00,
2013-02-25 13:54:00,84.5,64.4,29.77,SSE,152,8.0,12.0,51,0.00,,,0.00,VWS V14.01,2013-02-25 18:54:00,
2013-02-25 14:00:00,85.3,62.8,29.77,South,186,6.0,13.0,47,0.00,,,0.00,VWS V14.01,2013-02-25 19:00:00,
2013-02-25 14:04:00,85.3,62.8,29.77,South,186,6.0,13.0,47,0.00,,,0.00,VWS V14.01,2013-02-25 19:04:00,
2013-02-25 14:10:00,86.1,63.5,29.77,SSW,209,10.0,16.0,47,0.00,,,0.00,VWS V14.01,2013-02-25 19:10:00,
2013-02-25 14:14:00,86.1,63.5,29.77,SSW,209,10.0,16.0,47,0.00,,,0.00,VWS V14.01,2013-02-25 19:14:00,
2013-02-25 14:20:00,84.9,64.8,29.76,SSW,196,7.0,14.0,51,0.00,,,0.00,VWS V14.01,2013-02-25 19:20:00,
2013-02-25 14:24:00,84.9,64.8,29.76,SSW,196,7.0,14.0,51,0.00,,,0.00,VWS V14.01,2013-02-25 19:24:00,
2013-02-25 14:30:00,86.1,64.1,29.76,SSW,194,5.0,15.0,48,0.00,,,0.00,VWS V14.01,2013-02-25 19:30:00,
2013-02-25 14:34:00,86.1,64.1,29.76,SSW,194,5.0,15.0,48,0.00,,,0.00,VWS V14.01,2013-02-25 19:34:00,
2013-02-25 14:40:00,85.7,64.4,29.76,SSW,200,8.0,13.0,49,0.00,,,0.00,VWS V14.01,2013-02-25 19:40:00,
2013-02-25 14:44:00,85.7,64.4,29.76,SSW,200,8.0,13.0,49,0.00,,,0.00,VWS V14.01,2013-02-25 19:44:00,
2013-02-25 14:50:00,84.5,65.0,29.76,SSW,196,5.0,13.0,52,0.00,,,0.00,VWS V14.01,2013-02-25 19:50:00,
2013-02-25 14:54:00,84.5,65.0,29.76,SSW,196,5.0,13.0,52,0.00,,,0.00,VWS V14.01,2013-02-25 19:54:00,
2013-02-25 15:00:00,83.5,65.1,29.76,SSW,213,9.0,11.0,54,0.00,,,0.00,VWS V14.01,2013-02-25 20:00:00,
2013-02-25 15:04:00,83.5,65.1,29.76,SSW,213,9.0,11.0,54,0.00,,,0.00,VWS V14.01,2013-02-25 20:04:00,
2013-02-25 15:10:00,84.8,65.8,29.76,SSW,192,5.0,12.0,53,0.00,,,0.00,VWS V14.01,2013-02-25 20:10:00,
2013-02-25 15:14:00,84.8,65.8,29.76,SSW,192,5.0,12.0,53,0.00,,,0.00,VWS V14.01,2013-02-25 20:14:00,
2013-02-25 15:20:00,84.4,64.9,29.76,South,189,3.0,14.0,52,0.00,,,0.00,VWS V14.01,2013-02-25 20:20:00,
2013-02-25 15:24:00,84.4,64.9,29.76,South,189,3.0,14.0,52,0.00,,,0.00,VWS V14.01,2013-02-25 20:24:00,
2013-02-25 15:30:00,84.0,65.1,29.75,SW,227,4.0,8.0,53,0.00,,,0.00,VWS V14.01,2013-02-25 20:30:00,
2013-02-25 15:34:00,84.0,65.1,29.75,SW,227,4.0,8.0,53,0.00,,,0.00,VWS V14.01,2013-02-25 20:34:00,
2013-02-25 15:40:00,83.9,64.9,29.75,South,183,3.0,10.0,53,0.00,,,0.00,VWS V14.01,2013-02-25 20:40:00,
2013-02-25 15:44:00,83.9,64.9,29.75,South,183,3.0,10.0,53,0.00,,,0.00,VWS V14.01,2013-02-25 20:44:00,
2013-02-25 15:50:00,83.2,65.4,29.76,SSW,211,5.0,10.0,55,0.00,,,0.00,VWS V14.01,2013-02-25 20:50:00,
2013-02-25 15:54:00,83.2,65.4,29.76,SSW,211,5.0,10.0,55,0.00,,,0.00,VWS V14.01,2013-02-25 20:54:00,
2013-02-25 16:00:00,82.3,66.1,29.76,South,190,6.0,15.0,58,0.00,,,0.00,VWS V14.01,2013-02-25 21:00:00,
2013-02-25 16:04:00,82.3,66.1,29.76,South,190,6.0,15.0,58,0.00,,,0.00,VWS V14.01,2013-02-25 21:04:00,
2013-02-25 16:10:00,84.1,66.7,29.75,SW,221,10.0,13.0,56,0.00,,,0.00,VWS V14.01,2013-02-25 21:10:00,
2013-02-25 16:14:00,84.1,66.7,29.75,SW,221,10.0,13.0,56,0.00,,,0.00,VWS V14.01,2013-02-25 21:14:00,
2013-02-25 16:20:00,84.3,66.4,29.75,SSW,213,9.0,14.0,55,0.00,,,0.00,VWS V14.01,2013-02-25 21:20:00,
2013-02-25 16:24:00,84.3,66.4,29.75,SSW,213,9.0,14.0,55,0.00,,,0.00,VWS V14.01,2013-02-25 21:24:00,
2013-02-25 16:30:00,85.0,67.6,29.75,SSW,198,9.0,13.0,56,0.00,,,0.00,VWS V14.01,2013-02-25 21:30:00,
2013-02-25 16:34:00,85.0,67.6,29.75,SSW,198,9.0,13.0,56,0.00,,,0.00,VWS V14.01,2013-02-25 21:34:00,
2013-02-25 16:40:00,85.0,65.4,29.75,SSW,209,17.0,17.0,52,0.00,,,0.00,VWS V14.01,2013-02-25 21:40:00,
2013-02-25 16:44:00,85.0,65.4,29.75,SSW,209,17.0,17.0,52,0.00,,,0.00,VWS V14.01,2013-02-25 21:44:00,
2013-02-25 16:50:00,84.4,65.4,29.74,SW,225,11.0,17.0,53,0.00,,,0.00,VWS V14.01,2013-02-25 21:50:00,
2013-02-25 16:54:00,84.4,65.4,29.74,SW,225,11.0,17.0,53,0.00,,,0.00,VWS V14.01,2013-02-25 21:54:00,
2013-02-25 17:00:00,84.3,65.3,29.74,South,182,4.0,15.0,53,0.00,,,0.00,VWS V14.01,2013-02-25 22:00:00,
2013-02-25 17:04:00,84.3,65.3,29.74,South,182,4.0,15.0,53,0.00,,,0.00,VWS V14.01,2013-02-25 22:04:00,
2013-02-25 17:10:00,83.6,64.7,29.74,SW,214,6.0,18.0,53,0.00,,,0.00,VWS V14.01,2013-02-25 22:10:00,
2013-02-25 17:14:00,83.6,64.7,29.74,SW,214,6.0,18.0,53,0.00,,,0.00,VWS V14.01,2013-02-25 22:14:00,
2013-02-25 17:20:00,82.9,65.6,29.74,SSW,199,6.0,13.0,56,0.00,,,0.00,VWS V14.01,2013-02-25 22:20:00,
2013-02-25 17:24:00,82.9,65.6,29.74,SSW,199,6.0,13.0,56,0.00,,,0.00,VWS V14.01,2013-02-25 22:24:00,
2013-02-25 17:30:00,83.0,65.7,29.74,SW,215,5.0,12.0,56,0.00,,,0.00,VWS V14.01,2013-02-25 22:30:00,
2013-02-25 17:34:00,83.0,65.7,29.74,SW,215,5.0,12.0,56,0.00,,,0.00,VWS V14.01,2013-02-25 22:34:00,
2013-02-25 17:40:00,82.5,64.7,29.75,SSW,211,6.0,13.0,55,0.00,,,0.00,VWS V14.01,2013-02-25 22:40:00,
2013-02-25 17:44:00,82.5,64.7,29.75,SSW,211,6.0,13.0,55,0.00,,,0.00,VWS V14.01,2013-02-25 22:44:00,
2013-02-25 17:50:00,82.4,64.6,29.75,SSW,201,4.0,9.0,55,0.00,,,0.00,VWS V14.01,2013-02-25 22:50:00,
2013-02-25 17:54:00,82.4,64.6,29.75,SSW,201,4.0,9.0,55,0.00,,,0.00,VWS V14.01,2013-02-25 22:54:00,
2013-02-25 18:00:00,81.6,64.9,29.75,SSW,203,4.0,12.0,57,0.00,,,0.00,VWS V14.01,2013-02-25 23:00:00,
2013-02-25 18:04:00,81.6,64.9,29.75,SSW,203,4.0,12.0,57,0.00,,,0.00,VWS V14.01,2013-02-25 23:04:00,
2013-02-25 18:10:00,80.7,65.1,29.75,SSW,205,6.0,10.0,59,0.00,,,0.00,VWS V14.01,2013-02-25 23:10:00,
2013-02-25 18:14:00,80.7,65.1,29.75,SSW,205,6.0,10.0,59,0.00,,,0.00,VWS V14.01,2013-02-25 23:14:00,
2013-02-25 18:20:00,80.1,65.0,29.75,SSW,198,4.0,10.0,60,0.00,,,0.00,VWS V14.01,2013-02-25 23:20:00,
2013-02-25 18:24:00,80.1,65.0,29.75,SSW,198,4.0,10.0,60,0.00,,,0.00,VWS V14.01,2013-02-25 23:24:00,
2013-02-25 18:30:00,79.4,64.8,29.76,SSW,199,2.0,7.0,61,0.00,,,0.00,VWS V14.01,2013-02-25 23:30:00,
2013-02-25 18:34:00,79.4,64.8,29.76,SSW,199,2.0,7.0,61,0.00,,,0.00,VWS V14.01,2013-02-25 23:34:00,
2013-02-25 18:40:00,78.9,65.2,29.76,SW,214,3.0,8.0,63,0.00,,,0.00,VWS V14.01,2013-02-25 23:40:00,
2013-02-25 18:44:00,78.9,65.2,29.76,SW,214,3.0,8.0,63,0.00,,,0.00,VWS V14.01,2013-02-25 23:44:00,
2013-02-25 18:50:00,78.4,64.8,29.76,SW,223,3.0,8.0,63,0.00,,,0.00,VWS V14.01,2013-02-25 23:50:00,
2013-02-25 18:54:00,78.4,64.8,29.76,SW,223,3.0,8.0,63,0.00,,,0.00,VWS V14.01,2013-02-25 23:54:00,
2013-02-25 19:00:00,77.9,64.8,29.76,SW,223,3.0,6.0,64,0.00,,,0.00,VWS V14.01,2013-02-26 00:00:00,
2013-02-25 19:04:00,77.9,64.8,29.76,SW,223,3.0,6.0,64,0.00,,,0.00,VWS V14.01,2013-02-26 00:04:00,
2013-02-25 19:10:00,77.6,64.9,29.76,SW,223,3.0,6.0,65,0.00,,,0.00,VWS V14.01,2013-02-26 00:10:00,
2013-02-25 19:14:00,77.6,64.9,29.76,SW,223,3.0,6.0,65,0.00,,,0.00,VWS V14.01,2013-02-26 00:14:00,
2013-02-25 19:20:00,77.1,64.9,29.76,SW,229,1.0,7.0,66,0.00,,,0.00,VWS V14.01,2013-02-26 00:20:00,
2013-02-25 19:24:00,77.1,64.9,29.76,SW,229,1.0,7.0,66,0.00,,,0.00,VWS V14.01,2013-02-26 00:24:00,
2013-02-25 19:30:00,76.6,65.3,29.76,SW,229,2.0,5.0,68,0.00,,,0.00,VWS V14.01,2013-02-26 00:30:00,
2013-02-25 19:34:00,76.6,65.3,29.76,SW,229,2.0,5.0,68,0.00,,,0.00,VWS V14.01,2013-02-26 00:34:00,
2013-02-25 19:40:00,76.5,64.7,29.76,SW,223,0.0,7.0,67,0.00,,,0.00,VWS V14.01,2013-02-26 00:40:00,
2013-02-25 19:44:00,76.5,64.7,29.76,SW,223,0.0,7.0,67,0.00,,,0.00,VWS V14.01,2013-02-26 00:44:00,
2013-02-25 19:50:00,76.5,64.7,29.77,SSW,213,1.0,7.0,67,0.00,,,0.00,VWS V14.01,2013-02-26 00:50:00,
2013-02-25 19:54:00,76.5,64.7,29.77,SSW,213,1.0,7.0,67,0.00,,,0.00,VWS V14.01,2013-02-26 00:54:00,
2013-02-25 20:00:00,76.3,64.6,29.77,SSW,213,2.0,7.0,67,0.00,,,0.00,VWS V14.01,2013-02-26 01:00:00,
2013-02-25 20:04:00,76.3,64.6,29.77,SSW,213,2.0,7.0,67,0.00,,,0.00,VWS V14.01,2013-02-26 01:04:00,
2013-02-25 20:10:00,76.1,64.8,29.77,SSW,213,2.0,6.0,68,0.00,,,0.00,VWS V14.01,2013-02-26 01:10:00,
2013-02-25 20:14:00,76.1,64.8,29.77,SSW,213,2.0,6.0,68,0.00,,,0.00,VWS V14.01,2013-02-26 01:14:00,
2013-02-25 20:20:00,75.5,64.2,29.78,SSW,213,0.0,4.0,68,0.00,,,0.00,VWS V14.01,2013-02-26 01:20:00,
2013-02-25 20:24:00,75.5,64.2,29.78,SSW,213,0.0,4.0,68,0.00,,,0.00,VWS V14.01,2013-02-26 01:24:00,
2013-02-25 20:30:00,75.1,64.2,29.78,SSW,213,0.0,4.0,69,0.00,,,0.00,VWS V14.01,2013-02-26 01:30:00,
2013-02-25 20:34:00,75.1,64.2,29.78,SSW,213,0.0,4.0,69,0.00,,,0.00,VWS V14.01,2013-02-26 01:34:00,
2013-02-25 20:40:00,74.6,64.2,29.77,SSW,213,3.0,4.0,70,0.00,,,0.00,VWS V14.01,2013-02-26 01:40:00,
2013-02-25 20:44:00,74.6,64.2,29.77,SSW,213,3.0,4.0,70,0.00,,,0.00,VWS V14.01,2013-02-26 01:44:00,
2013-02-25 20:50:00,74.0,64.0,29.77,SSW,213,1.0,5.0,71,0.00,,,0.00,VWS V14.01,2013-02-26 01:50:00,
2013-02-25 20:54:00,74.0,64.0,29.77,SSW,213,1.0,5.0,71,0.00,,,0.00,VWS V14.01,2013-02-26 01:54:00,
2013-02-25 21:00:00,73.5,64.3,29.77,SSW,205,1.0,6.0,73,0.00,,,0.00,VWS V14.01,2013-02-26 02:00:00,
2013-02-25 21:04:00,73.5,64.3,29.77,SSW,205,1.0,6.0,73,0.00,,,0.00,VWS V14.01,2013-02-26 02:04:00,
2013-02-25 21:10:00,73.1,64.3,29.77,SSW,205,1.0,5.0,74,0.00,,,0.00,VWS V14.01,2013-02-26 02:10:00,
2013-02-25 21:14:00,73.1,64.3,29.77,SSW,205,1.0,5.0,74,0.00,,,0.00,VWS V14.01,2013-02-26 02:14:00,
2013-02-25 21:20:00,72.7,64.7,29.77,SSW,205,0.0,5.0,76,0.00,,,0.00,VWS V14.01,2013-02-26 02:20:00,
2013-02-25 21:24:00,72.7,64.7,29.77,SSW,205,0.0,5.0,76,0.00,,,0.00,VWS V14.01,2013-02-26 02:24:00,
2013-02-25 21:30:00,72.2,65.0,29.77,SSW,205,1.0,3.0,78,0.00,,,0.00,VWS V14.01,2013-02-26 02:30:00,
2013-02-25 21:34:00,72.2,65.0,29.77,SSW,205,1.0,3.0,78,0.00,,,0.00,VWS V14.01,2013-02-26 02:34:00,
2013-02-25 21:40:00,72.2,65.3,29.76,SSW,205,3.0,3.0,79,0.00,,,0.00,VWS V14.01,2013-02-26 02:40:00,
2013-02-25 21:44:00,72.2,65.3,29.76,SSW,205,3.0,3.0,79,0.00,,,0.00,VWS V14.01,2013-02-26 02:44:00,
2013-02-25 21:50:00,72.0,65.1,29.77,SSW,205,3.0,5.0,79,0.00,,,0.00,VWS V14.01,2013-02-26 02:50:00,
2013-02-25 21:54:00,72.0,65.1,29.77,SSW,205,3.0,5.0,79,0.00,,,0.00,VWS V14.01,2013-02-26 02:54:00,
2013-02-25 22:00:00,71.7,65.2,29.76,SSW,205,0.0,4.0,80,0.00,,,0.00,VWS V14.01,2013-02-26 03:00:00,
2013-02-25 22:04:00,71.7,65.2,29.76,SSW,205,0.0,4.0,80,0.00,,,0.00,VWS V14.01,2013-02-26 03:04:00,
2013-02-25 22:10:00,71.5,65.4,29.76,SSW,205,0.0,4.0,81,0.00,,,0.00,VWS V14.01,2013-02-26 03:10:00,
2013-02-25 22:14:00,71.5,65.4,29.76,SSW,205,0.0,4.0,81,0.00,,,0.00,VWS V14.01,2013-02-26 03:14:00,
2013-02-25 22:20:00,71.4,65.3,29.76,SSW,205,2.0,3.0,81,0.00,,,0.00,VWS V14.01,2013-02-26 03:20:00,
2013-02-25 22:24:00,71.4,65.3,29.76,SSW,205,2.0,3.0,81,0.00,,,0.00,VWS V14.01,2013-02-26 03:24:00,
2013-02-25 22:30:00,71.2,65.1,29.76,SSW,205,2.0,5.0,81,0.00,,,0.00,VWS V14.01,2013-02-26 03:30:00,
2013-02-25 22:34:00,71.2,65.1,29.76,SSW,205,2.0,5.0,81,0.00,,,0.00,VWS V14.01,2013-02-26 03:34:00,
2013-02-25 22:40:00,71.0,64.9,29.76,SSW,205,0.0,4.0,81,0.00,,,0.00,VWS V14.01,2013-02-26 03:40:00,
2013-02-25 22:44:00,71.0,64.9,29.76,SSW,205,0.0,4.0,81,0.00,,,0.00,VWS V14.01,2013-02-26 03:44:00,
2013-02-25 22:50:00,70.8,65.0,29.77,SSW,205,0.0,4.0,82,0.00,,,0.00,VWS V14.01,2013-02-26 03:50:00,
2013-02-25 22:54:00,70.8,65.0,29.77,SSW,205,0.0,4.0,82,0.00,,,0.00,VWS V14.01,2013-02-26 03:54:00,
2013-02-25 23:00:00,70.6,65.2,29.77,SSW,205,0.0,3.0,83,0.00,,,0.00,VWS V14.01,2013-02-26 04:00:00,
2013-02-25 23:04:00,70.6,65.2,29.77,SSW,205,0.0,3.0,83,0.00,,,0.00,VWS V14.01,2013-02-26 04:04:00,
2013-02-25 23:10:00,70.5,65.1,29.77,SSW,205,0.0,3.0,83,0.00,,,0.00,VWS V14.01,2013-02-26 04:10:00,
2013-02-25 23:14:00,70.5,65.1,29.77,SSW,205,0.0,3.0,83,0.00,,,0.00,VWS V14.01,2013-02-26 04:14:00,
2013-02-25 23:20:00,70.3,64.9,29.77,SSW,205,2.0,4.0,83,0.00,,,0.00,VWS V14.01,2013-02-26 04:20:00,
2013-02-25 23:24:00,70.3,64.9,29.77,SSW,205,2.0,4.0,83,0.00,,,0.00,VWS V14.01,2013-02-26 04:24:00,
2013-02-25 23:30:00,70.3,64.9,29.77,SSW,205,1.0,4.0,83,0.00,,,0.00,VWS V14.01,2013-02-26 04:30:00,
2013-02-25 23:34:00,70.3,64.9,29.77,SSW,205,1.0,4.0,83,0.00,,,0.00,VWS V14.01,2013-02-26 04:34:00,
2013-02-25 23:40:00,70.2,64.8,29.77,SSW,205,0.0,4.0,83,0.00,,,0.00,VWS V14.01,2013-02-26 04:40:00,
2013-02-25 23:44:00,70.2,64.8,29.77,SSW,205,0.0,4.0,83,0.00,,,0.00,VWS V14.01,2013-02-26 04:44:00,
2013-02-25 23:50:00,70.3,64.9,29.77,SSW,200,3.0,6.0,83,0.00,,,0.00,VWS V14.01,2013-02-26 04:50:00,
2013-02-25 23:54:00,70.3,64.9,29.77,SSW,200,3.0,6.0,83,0.00,,,0.00,VWS V14.01,2013-02-26 04:54:00,